Inscriptos

800 Electronico
Fecha Serie Viento Presión Humedad Temperatura
02-10-2016 Final_A
Andarivel Nombre Dia Mes Año Equipo Mejor Marca
Alegre Lautaro 13 4 1999 SF 1.58.00
Alegre Diego Facundo 7 9 2000 CTS 1.58.21
Vera Tiago Nahuel 20 2 2000 CTS 2.00.25
Grisman Gabriel 27 2 2000 FAPBA 2.01.20
Martinez Emanuel 9 4 2001 BA 2.01.70
Pires Bruno 17 1 2001 ER 2.01.82
Alvarez Emanuel Alejandro 8 12 2000 ER 2.01.99
Ferreira Nicolas 1 1 2000 MZA 2.03.09
Romero Matias 24 11 2001 BA 2.03.56
Burgos Nicolas 3 3 2000 ER 2.03.99
Tivani Kevin 22 11 1999 BA 2.04.11
Modi Julian 14 5 1999 CTS 2.04.25
Arriagada Axel 9 9 2001 CHU 2.04.69
Campos Fernando 17 4 2000 MZA 2.05.99
Manrique Ezequiel 16 2 1999 LRI 2.06.99
Lucas Guillermo 1 10 2000 FAM 2.07.99
Moyano Rodrigo Alejandro 24 8 2000 FAM 2.07.99
Brian Alan Sasso 23 4 2000 FAM 2.08.99
Gonzalez Fabian 20 8 1999 MNS 2.10.99
Elias Ruben Pereyra 27 7 2000 NEU 2.11.99
Acuna Amir 27 2 2001 NEU 2.11.99
Gonzalez Pool Alan 24 6 2001 LRI 2.14.99
Gallardo Delgado Jose Ignacio 5 4 2001 SJ 2.15.99
Saracco Ignacio 3 10 2000 MZA 2.19.09